Time,TemperatureF,DewpointF,PressureIn,WindDirection,WindDirectionDegrees,WindSpeedMPH,WindSpeedGustMPH,Humidity,HourlyPrecipIn,Conditions,Clouds,dailyrainin,SoftwareType,DateUTC
2013-01-19 00:00:00,35.9,30.3,30.29,SE,131,4.0,7.0,80,0.00,,,0.00,Wunderground v.1.15,2013-01-19 06:00:00,
2013-01-19 00:05:00,35.8,30.2,30.29,SE,142,5.0,7.0,80,0.00,,,0.00,Wunderground v.1.15,2013-01-19 06:05:00,
2013-01-19 00:15:00,35.6,30.3,30.29,SE,142,5.0,7.0,81,0.00,,,0.00,Wunderground v.1.15,2013-01-19 06:15:00,
2013-01-19 00:20:00,35.6,30.3,30.28,SE,143,5.0,5.0,81,0.00,,,0.00,Wunderground v.1.15,2013-01-19 06:20:00,
2013-01-19 00:25:00,35.6,30.3,30.29,SE,131,5.0,7.0,81,0.00,,,0.00,Wunderground v.1.15,2013-01-19 06:25:00,
2013-01-19 00:30:00,35.8,30.2,30.28,SE,144,5.0,7.0,80,0.00,,,0.00,Wunderground v.1.15,2013-01-19 06:30:00,
2013-01-19 00:35:00,35.9,30.0,30.28,SE,140,5.0,7.0,79,0.00,,,0.00,Wunderground v.1.15,2013-01-19 06:35:00,
2013-01-19 00:40:00,36.0,30.1,30.28,SSE,150,5.0,9.0,79,0.00,,,0.00,Wunderground v.1.15,2013-01-19 06:40:00,
2013-01-19 00:45:00,36.0,30.1,30.28,SSE,154,6.0,9.0,79,0.00,,,0.00,Wunderground v.1.15,2013-01-19 06:45:00,
2013-01-19 00:50:00,36.1,29.9,30.28,SSE,152,5.0,8.0,78,0.00,,,0.00,Wunderground v.1.15,2013-01-19 06:50:00,
2013-01-19 00:55:00,36.2,30.0,30.28,SE,135,5.0,9.0,78,0.00,,,0.00,Wunderground v.1.15,2013-01-19 06:55:00,
2013-01-19 01:00:00,36.4,29.9,30.28,SE,139,7.0,12.0,77,0.00,,,0.00,Wunderground v.1.15,2013-01-19 07:00:00,
2013-01-19 01:05:00,36.6,29.7,30.28,SE,138,8.0,12.0,76,0.00,,,0.00,Wunderground v.1.15,2013-01-19 07:05:00,
2013-01-19 01:10:00,36.7,29.8,30.28,SSE,147,8.0,10.0,76,0.00,,,0.00,Wunderground v.1.15,2013-01-19 07:10:00,
2013-01-19 01:15:00,36.8,29.6,30.28,SE,127,7.0,10.0,75,0.00,,,0.00,Wunderground v.1.15,2013-01-19 07:15:00,
2013-01-19 01:20:00,36.8,29.6,30.28,SE,137,6.0,7.0,75,0.00,,,0.00,Wunderground v.1.15,2013-01-19 07:20:00,
2013-01-19 01:25:00,36.7,29.5,30.28,SE,139,6.0,7.0,75,0.00,,,0.00,Wunderground v.1.15,2013-01-19 07:25:00,
2013-01-19 01:30:00,36.5,29.7,30.28,SSE,150,6.0,7.0,76,0.00,,,0.00,Wunderground v.1.15,2013-01-19 07:30:00,
2013-01-19 01:35:00,36.4,29.6,30.28,SE,139,7.0,7.0,76,0.00,,,0.00,Wunderground v.1.15,2013-01-19 07:35:00,
2013-01-19 01:40:00,36.4,29.6,30.28,SE,144,8.0,8.0,76,0.00,,,0.00,Wunderground v.1.15,2013-01-19 07:40:00,
2013-01-19 01:45:00,36.5,29.7,30.28,SE,146,8.0,11.0,76,0.00,,,0.00,Wunderground v.1.15,2013-01-19 07:45:00,
2013-01-19 01:50:00,36.6,29.4,30.28,SE,126,9.0,12.0,75,0.00,,,0.00,Wunderground v.1.15,2013-01-19 07:50:00,
2013-01-19 01:55:00,36.5,29.3,30.28,SE,142,9.0,12.0,75,0.00,,,0.00,Wunderground v.1.15,2013-01-19 07:55:00,
2013-01-19 02:00:00,36.4,29.6,30.28,SE,144,7.0,7.0,76,0.00,,,0.00,Wunderground v.1.15,2013-01-19 08:00:00,
2013-01-19 02:05:00,36.3,29.5,30.28,SE,131,7.0,7.0,76,0.00,,,0.00,Wunderground v.1.15,2013-01-19 08:05:00,
2013-01-19 02:10:00,36.1,29.3,30.28,ESE,123,6.0,6.0,76,0.00,,,0.00,Wunderground v.1.15,2013-01-19 08:10:00,
2013-01-19 02:15:00,36.0,29.2,30.28,SSE,154,5.0,7.0,76,0.00,,,0.00,Wunderground v.1.15,2013-01-19 08:15:00,
2013-01-19 02:20:00,35.8,29.3,30.28,SE,130,5.0,5.0,77,0.00,,,0.00,Wunderground v.1.15,2013-01-19 08:20:00,
2013-01-19 02:25:00,35.7,29.2,30.28,SE,133,6.0,6.0,77,0.00,,,0.00,Wunderground v.1.15,2013-01-19 08:25:00,
2013-01-19 02:30:00,35.7,29.2,30.28,SSE,163,6.0,7.0,77,0.00,,,0.00,Wunderground v.1.15,2013-01-19 08:30:00,
2013-01-19 02:35:00,35.8,29.3,30.28,SE,131,6.0,8.0,77,0.00,,,0.00,Wunderground v.1.15,2013-01-19 08:35:00,
2013-01-19 02:40:00,35.8,29.3,30.28,ESE,123,7.0,7.0,77,0.00,,,0.00,Wunderground v.1.15,2013-01-19 08:40:00,
2013-01-19 02:45:00,35.8,29.3,30.27,SE,135,7.0,11.0,77,0.00,,,0.00,Wunderground v.1.15,2013-01-19 08:45:00,
2013-01-19 02:50:00,35.8,29.3,30.27,SE,146,8.0,8.0,77,0.00,,,0.00,Wunderground v.1.15,2013-01-19 08:50:00,
2013-01-19 02:55:00,35.8,29.3,30.27,SE,146,7.0,8.0,77,0.00,,,0.00,Wunderground v.1.15,2013-01-19 08:55:00,
2013-01-19 03:00:00,35.8,29.3,30.27,SE,141,7.0,8.0,77,0.00,,,0.00,Wunderground v.1.15,2013-01-19 09:00:00,
2013-01-19 03:05:00,35.8,29.3,30.27,SE,144,7.0,11.0,77,0.00,,,0.00,Wunderground v.1.15,2013-01-19 09:05:00,
2013-01-19 03:10:00,35.8,29.3,30.26,SE,126,9.0,9.0,77,0.00,,,0.00,Wunderground v.1.15,2013-01-19 09:10:00,
2013-01-19 03:15:00,35.9,29.4,30.26,SE,137,9.0,9.0,77,0.00,,,0.00,Wunderground v.1.15,2013-01-19 09:15:00,
2013-01-19 03:20:00,35.9,29.1,30.26,SE,131,9.0,13.0,76,0.00,,,0.00,Wunderground v.1.15,2013-01-19 09:20:00,
2013-01-19 03:25:00,35.8,29.0,30.26,SE,139,8.0,13.0,76,0.00,,,0.00,Wunderground v.1.15,2013-01-19 09:25:00,
2013-01-19 03:30:00,35.8,29.0,30.26,SE,138,8.0,9.0,76,0.00,,,0.00,Wunderground v.1.15,2013-01-19 09:30:00,
2013-01-19 03:35:00,35.7,28.9,30.26,SE,133,7.0,9.0,76,0.00,,,0.00,Wunderground v.1.15,2013-01-19 09:35:00,
2013-01-19 03:40:00,35.4,28.6,30.26,SE,130,5.0,5.0,76,0.00,,,0.00,Wunderground v.1.15,2013-01-19 09:40:00,
2013-01-19 03:45:00,35.1,28.6,30.26,SSE,148,4.0,7.0,77,0.00,,,0.00,Wunderground v.1.15,2013-01-19 09:45:00,
2013-01-19 03:50:00,34.9,28.4,30.26,SSE,148,3.0,7.0,77,0.00,,,0.00,Wunderground v.1.15,2013-01-19 09:50:00,
2013-01-19 03:55:00,34.7,28.2,30.26,SE,133,4.0,7.0,77,0.00,,,0.00,Wunderground v.1.15,2013-01-19 09:55:00,
2013-01-19 04:00:00,34.6,28.4,30.26,SE,129,5.0,7.0,78,0.00,,,0.00,Wunderground v.1.15,2013-01-19 10:00:00,
2013-01-19 04:05:00,34.6,28.1,30.26,SE,140,4.0,7.0,77,0.00,,,0.00,Wunderground v.1.15,2013-01-19 10:05:00,
2013-01-19 04:10:00,34.5,28.3,30.26,SE,143,4.0,4.0,78,0.00,,,0.00,Wunderground v.1.15,2013-01-19 10:10:00,
2013-01-19 04:15:00,34.4,28.2,30.26,SE,131,3.0,7.0,78,0.00,,,0.00,Wunderground v.1.15,2013-01-19 10:15:00,
2013-01-19 04:20:00,34.3,28.2,30.26,ESE,113,4.0,7.0,78,0.00,,,0.00,Wunderground v.1.15,2013-01-19 10:20:00,
2013-01-19 04:25:00,34.2,28.1,30.25,SE,145,6.0,7.0,78,0.00,,,0.00,Wunderground v.1.15,2013-01-19 10:25:00,
2013-01-19 04:30:00,34.4,28.6,30.25,SE,133,6.0,6.0,79,0.00,,,0.00,Wunderground v.1.15,2013-01-19 10:30:00,
2013-01-19 04:35:00,34.5,28.3,30.26,SE,133,7.0,7.0,78,0.00,,,0.00,Wunderground v.1.15,2013-01-19 10:35:00,
2013-01-19 04:40:00,34.4,28.2,30.25,SE,136,6.0,7.0,78,0.00,,,0.00,Wunderground v.1.15,2013-01-19 10:40:00,
2013-01-19 04:45:00,34.2,28.1,30.26,SE,132,6.0,7.0,78,0.00,,,0.00,Wunderground v.1.15,2013-01-19 10:45:00,
2013-01-19 04:50:00,34.2,28.4,30.26,SE,127,6.0,7.0,79,0.00,,,0.00,Wunderground v.1.15,2013-01-19 10:50:00,
2013-01-19 04:55:00,34.1,28.3,30.26,SE,126,7.0,9.0,79,0.00,,,0.00,Wunderground v.1.15,2013-01-19 10:55:00,
2013-01-19 05:00:00,34.2,28.4,30.25,SE,141,7.0,9.0,79,0.00,,,0.00,Wunderground v.1.15,2013-01-19 11:00:00,
2013-01-19 05:05:00,34.3,28.2,30.25,SE,137,8.0,9.0,78,0.00,,,0.00,Wunderground v.1.15,2013-01-19 11:05:00,
2013-01-19 05:10:00,34.2,28.4,30.25,East,101,8.0,8.0,79,0.00,,,0.00,Wunderground v.1.15,2013-01-19 11:10:00,
2013-01-19 06:50:00,34.8,29.0,30.24,SE,142,9.0,9.0,79,0.00,,,0.00,Wunderground v.1.15,2013-01-19 12:50:00,
2013-01-19 06:55:00,34.6,28.8,30.24,South,178,9.0,9.0,79,0.00,,,0.00,Wunderground v.1.15,2013-01-19 12:55:00,
2013-01-19 07:00:00,34.5,29.0,30.24,SE,137,9.0,9.0,80,0.00,,,0.00,Wunderground v.1.15,2013-01-19 13:00:00,
2013-01-19 07:05:00,34.4,28.9,30.24,SSE,148,8.0,9.0,80,0.00,,,0.00,Wunderground v.1.15,2013-01-19 13:05:00,
2013-01-19 07:10:00,34.3,29.1,30.24,SE,144,8.0,10.0,81,0.00,,,0.00,Wunderground v.1.15,2013-01-19 13:10:00,
2013-01-19 07:15:00,34.4,29.2,30.24,ESE,119,9.0,10.0,81,0.00,,,0.00,Wunderground v.1.15,2013-01-19 13:15:00,
2013-01-19 07:20:00,34.4,29.2,30.24,SSE,148,9.0,10.0,81,0.00,,,0.00,Wunderground v.1.15,2013-01-19 13:20:00,
2013-01-19 07:25:00,34.3,29.1,30.24,SE,141,9.0,11.0,81,0.00,,,0.00,Wunderground v.1.15,2013-01-19 13:25:00,
2013-01-19 07:30:00,34.3,29.1,30.24,SSE,151,9.0,9.0,81,0.00,,,0.00,Wunderground v.1.15,2013-01-19 13:30:00,
2013-01-19 07:35:00,34.3,29.4,30.24,SSE,148,10.0,11.0,82,0.00,,,0.00,Wunderground v.1.15,2013-01-19 13:35:00,
2013-01-19 07:40:00,34.3,29.4,30.24,SE,146,9.0,9.0,82,0.00,,,0.00,Wunderground v.1.15,2013-01-19 13:40:00,
2013-01-19 07:45:00,34.4,29.5,30.24,SE,129,9.0,12.0,82,0.00,,,0.00,Wunderground v.1.15,2013-01-19 13:45:00,
2013-01-19 07:50:00,34.5,29.6,30.23,SE,146,10.0,13.0,82,0.00,,,0.00,Wunderground v.1.15,2013-01-19 13:50:00,
2013-01-19 07:55:00,34.7,29.8,30.24,SSE,148,10.0,14.0,82,0.00,,,0.00,Wunderground v.1.15,2013-01-19 13:55:00,
2013-01-19 08:00:00,34.9,30.0,30.24,SSE,151,10.0,12.0,82,0.00,,,0.00,Wunderground v.1.15,2013-01-19 14:00:00,
2013-01-19 08:05:00,35.1,30.2,30.23,SE,131,11.0,12.0,82,0.00,,,0.00,Wunderground v.1.15,2013-01-19 14:05:00,
2013-01-19 08:15:00,35.5,30.2,30.23,SE,143,10.0,11.0,81,0.00,,,0.00,Wunderground v.1.15,2013-01-19 14:15:00,
2013-01-19 08:20:00,35.8,30.5,30.23,SE,144,9.0,10.0,81,0.00,,,0.00,Wunderground v.1.15,2013-01-19 14:20:00,
2013-01-19 08:25:00,36.0,30.7,30.24,SE,125,9.0,10.0,81,0.00,,,0.00,Wunderground v.1.15,2013-01-19 14:25:00,
2013-01-19 08:30:00,36.2,30.9,30.24,SE,134,9.0,10.0,81,0.00,,,0.00,Wunderground v.1.15,2013-01-19 14:30:00,
2013-01-19 08:35:00,36.6,31.0,30.24,SE,133,8.0,12.0,80,0.00,,,0.00,Wunderground v.1.15,2013-01-19 14:35:00,
2013-01-19 08:40:00,36.8,31.2,30.24,SSE,160,9.0,9.0,80,0.00,,,0.00,Wunderground v.1.15,2013-01-19 14:40:00,
2013-01-19 08:45:00,37.2,31.6,30.24,SE,129,9.0,9.0,80,0.00,,,0.00,Wunderground v.1.15,2013-01-19 14:45:00,
2013-01-19 08:50:00,37.6,31.7,30.24,SSE,162,7.0,7.0,79,0.00,,,0.00,Wunderground v.1.15,2013-01-19 14:50:00,
2013-01-19 08:55:00,38.0,31.7,30.24,South,175,7.0,9.0,78,0.00,,,0.00,Wunderground v.1.15,2013-01-19 14:55:00,
2013-01-19 09:00:00,38.3,32.0,30.24,SSE,156,7.0,7.0,78,0.00,,,0.00,Wunderground v.1.15,2013-01-19 15:00:00,
2013-01-19 09:05:00,38.5,32.2,30.24,SSE,152,8.0,8.0,78,0.00,,,0.00,Wunderground v.1.15,2013-01-19 15:05:00,
2013-01-19 09:10:00,38.7,32.4,30.24,SE,128,8.0,8.0,78,0.00,,,0.00,Wunderground v.1.15,2013-01-19 15:10:00,
2013-01-19 09:15:00,38.9,32.3,30.24,SE,139,8.0,8.0,77,0.00,,,0.00,Wunderground v.1.15,2013-01-19 15:15:00,
2013-01-19 09:20:00,39.1,32.5,30.24,SSE,160,9.0,9.0,77,0.00,,,0.00,Wunderground v.1.15,2013-01-19 15:20:00,
2013-01-19 09:25:00,39.4,32.8,30.24,SSE,158,8.0,9.0,77,0.00,,,0.00,Wunderground v.1.15,2013-01-19 15:25:00,
2013-01-19 09:30:00,39.7,32.8,30.24,South,173,8.0,11.0,76,0.00,,,0.00,Wunderground v.1.15,2013-01-19 15:30:00,
2013-01-19 09:35:00,40.0,33.0,30.24,SSE,149,8.0,11.0,76,0.00,,,0.00,Wunderground v.1.15,2013-01-19 15:35:00,
2013-01-19 09:40:00,40.3,33.0,30.24,SSE,158,8.0,15.0,75,0.00,,,0.00,Wunderground v.1.15,2013-01-19 15:40:00,
2013-01-19 09:45:00,40.6,33.3,30.24,SSE,153,9.0,15.0,75,0.00,,,0.00,Wunderground v.1.15,2013-01-19 15:45:00,
2013-01-19 09:50:00,41.0,34.0,30.24,SE,141,9.0,10.0,76,0.00,,,0.00,Wunderground v.1.15,2013-01-19 15:50:00,
2013-01-19 09:55:00,41.4,34.1,30.24,SSE,156,8.0,12.0,75,0.00,,,0.00,Wunderground v.1.15,2013-01-19 15:55:00,
2013-01-19 10:00:00,41.6,33.9,30.24,SE,144,8.0,8.0,74,0.00,,,0.00,Wunderground v.1.15,2013-01-19 16:00:00,
2013-01-19 10:05:00,42.0,34.6,30.24,SSE,149,7.0,8.0,75,0.00,,,0.00,Wunderground v.1.15,2013-01-19 16:05:00,
2013-01-19 10:10:00,42.3,34.6,30.24,SSE,162,8.0,8.0,74,0.00,,,0.00,Wunderground v.1.15,2013-01-19 16:10:00,
2013-01-19 10:15:00,42.6,34.9,30.24,SSE,164,8.0,12.0,74,0.00,,,0.00,Wunderground v.1.15,2013-01-19 16:15:00,
2013-01-19 10:20:00,42.9,34.8,30.24,South,179,8.0,8.0,73,0.00,,,0.00,Wunderground v.1.15,2013-01-19 16:20:00,
2013-01-19 10:25:00,43.2,35.1,30.23,SE,130,8.0,8.0,73,0.00,,,0.00,Wunderground v.1.15,2013-01-19 16:25:00,
2013-01-19 10:30:00,43.5,35.4,30.23,SSE,157,8.0,8.0,73,0.00,,,0.00,Wunderground v.1.15,2013-01-19 16:30:00,
2013-01-19 10:35:00,44.0,36.2,30.22,SE,146,8.0,9.0,74,0.00,,,0.00,Wunderground v.1.15,2013-01-19 16:35:00,
2013-01-19 10:40:00,44.5,36.0,30.22,SSE,161,8.0,11.0,72,0.00,,,0.00,Wunderground v.1.15,2013-01-19 16:40:00,
2013-01-19 10:45:00,44.8,36.3,30.22,South,174,9.0,11.0,72,0.00,,,0.00,Wunderground v.1.15,2013-01-19 16:45:00,
2013-01-19 10:50:00,45.4,36.9,30.21,SSE,154,9.0,10.0,72,0.00,,,0.00,Wunderground v.1.15,2013-01-19 16:50:00,
2013-01-19 11:00:00,46.5,36.5,30.21,SE,146,8.0,8.0,68,0.00,,,0.00,Wunderground v.1.15,2013-01-19 17:00:00,
2013-01-19 11:05:00,47.0,37.7,30.20,South,172,8.0,8.0,70,0.00,,,0.00,Wunderground v.1.15,2013-01-19 17:05:00,
2013-01-19 11:10:00,47.3,37.6,30.20,SSE,164,8.0,8.0,69,0.00,,,0.00,Wunderground v.1.15,2013-01-19 17:10:00,
2013-01-19 11:15:00,47.5,37.5,30.20,South,189,9.0,9.0,68,0.00,,,0.00,Wunderground v.1.15,2013-01-19 17:15:00,
2013-01-19 11:20:00,47.8,38.1,30.19,SSE,152,10.0,10.0,69,0.00,,,0.00,Wunderground v.1.15,2013-01-19 17:20:00,
2013-01-19 11:30:00,48.4,37.9,30.18,SSE,160,9.0,9.0,67,0.00,,,0.00,Wunderground v.1.15,2013-01-19 17:30:00,
2013-01-19 11:35:00,48.8,38.3,30.18,SSE,151,9.0,9.0,67,0.00,,,0.00,Wunderground v.1.15,2013-01-19 17:35:00,
2013-01-19 11:40:00,49.2,38.7,30.18,SSE,158,8.0,8.0,67,0.00,,,0.00,Wunderground v.1.15,2013-01-19 17:40:00,
2013-01-19 11:45:00,49.5,39.0,30.17,SE,145,8.0,13.0,67,0.00,,,0.00,Wunderground v.1.15,2013-01-19 17:45:00,
2013-01-19 11:50:00,49.7,39.6,30.17,SSE,158,8.0,9.0,68,0.00,,,0.00,Wunderground v.1.15,2013-01-19 17:50:00,
2013-01-19 11:55:00,50.1,39.2,30.17,SE,141,8.0,9.0,66,0.00,,,0.00,Wunderground v.1.15,2013-01-19 17:55:00,
2013-01-19 12:00:00,50.4,39.9,30.16,SSE,150,7.0,7.0,67,0.00,,,0.00,Wunderground v.1.15,2013-01-19 18:00:00,
2013-01-19 12:05:00,50.4,39.9,30.16,SSE,153,7.0,9.0,67,0.00,,,0.00,Wunderground v.1.15,2013-01-19 18:05:00,
2013-01-19 12:10:00,50.5,40.3,30.15,South,191,8.0,8.0,68,0.00,,,0.00,Wunderground v.1.15,2013-01-19 18:10:00,
2013-01-19 12:20:00,51.5,41.7,30.15,South,185,7.0,7.0,69,0.00,,,0.00,Wunderground v.1.15,2013-01-19 18:20:00,
2013-01-19 12:25:00,52.0,41.4,30.14,SE,126,8.0,8.0,67,0.00,,,0.00,Wunderground v.1.15,2013-01-19 18:25:00,
2013-01-19 12:30:00,52.2,42.3,30.14,SSW,201,7.0,14.0,69,0.00,,,0.00,Wunderground v.1.15,2013-01-19 18:30:00,
2013-01-19 12:35:00,52.5,41.5,30.14,South,171,8.0,14.0,66,0.00,,,0.00,Wunderground v.1.15,2013-01-19 18:35:00,
2013-01-19 12:45:00,52.9,42.2,30.13,SSW,198,10.0,10.0,67,0.00,,,0.00,Wunderground v.1.15,2013-01-19 18:45:00,
2013-01-19 12:55:00,53.0,40.7,30.13,SSW,201,13.0,13.0,63,0.00,,,0.00,Wunderground v.1.15,2013-01-19 18:55:00,
2013-01-19 13:00:00,53.0,39.9,30.13,South,187,13.0,13.0,61,0.00,,,0.00,Wunderground v.1.15,2013-01-19 19:00:00,
2013-01-19 13:05:00,53.0,39.9,30.13,SW,219,13.0,19.0,61,0.00,,,0.00,Wunderground v.1.15,2013-01-19 19:05:00,
2013-01-19 13:15:00,53.0,39.9,30.12,SE,134,13.0,17.0,61,0.00,,,0.00,Wunderground v.1.15,2013-01-19 19:15:00,
2013-01-19 13:20:00,52.8,39.7,30.12,SSW,195,13.0,15.0,61,0.00,,,0.00,Wunderground v.1.15,2013-01-19 19:20:00,
2013-01-19 13:25:00,52.7,39.2,30.11,SSW,200,13.0,15.0,60,0.00,,,0.00,Wunderground v.1.15,2013-01-19 19:25:00,
2013-01-19 13:30:00,52.8,40.5,30.11,SSE,165,13.0,13.0,63,0.00,,,0.00,Wunderground v.1.15,2013-01-19 19:30:00,
2013-01-19 13:35:00,52.9,40.2,30.11,SSW,197,12.0,13.0,62,0.00,,,0.00,Wunderground v.1.15,2013-01-19 19:35:00,
2013-01-19 13:40:00,53.1,40.4,30.11,SSW,198,12.0,12.0,62,0.00,,,0.00,Wunderground v.1.15,2013-01-19 19:40:00,
2013-01-19 13:45:00,53.3,41.0,30.11,South,188,11.0,12.0,63,0.00,,,0.00,Wunderground v.1.15,2013-01-19 19:45:00,
2013-01-19 13:50:00,53.4,41.9,30.11,SSW,209,11.0,11.0,65,0.00,,,0.00,Wunderground v.1.15,2013-01-19 19:50:00,
2013-01-19 13:55:00,53.5,40.8,30.11,SSE,168,12.0,12.0,62,0.00,,,0.00,Wunderground v.1.15,2013-01-19 19:55:00,
2013-01-19 14:00:00,53.5,40.8,30.11,SSW,198,12.0,13.0,62,0.00,,,0.00,Wunderground v.1.15,2013-01-19 20:00:00,
2013-01-19 14:05:00,53.7,41.0,30.11,SSW,201,11.0,13.0,62,0.00,,,0.00,Wunderground v.1.15,2013-01-19 20:05:00,
2013-01-19 14:10:00,53.9,41.6,30.11,SW,216,11.0,11.0,63,0.00,,,0.00,Wunderground v.1.15,2013-01-19 20:10:00,
2013-01-19 14:20:00,53.7,41.0,30.10,SSW,193,13.0,13.0,62,0.00,,,0.00,Wunderground v.1.15,2013-01-19 20:20:00,
2013-01-19 14:25:00,53.8,41.5,30.09,SSE,152,12.0,13.0,63,0.00,,,0.00,Wunderground v.1.15,2013-01-19 20:25:00,
2013-01-19 14:30:00,53.9,42.0,30.09,SE,129,11.0,11.0,64,0.00,,,0.00,Wunderground v.1.15,2013-01-19 20:30:00,
2013-01-19 14:40:00,54.2,42.7,30.09,SW,231,11.0,11.0,65,0.00,,,0.00,Wunderground v.1.15,2013-01-19 20:40:00,
2013-01-19 14:45:00,54.3,42.8,30.09,SSW,194,10.0,11.0,65,0.00,,,0.00,Wunderground v.1.15,2013-01-19 20:45:00,
2013-01-19 14:50:00,54.5,43.0,30.09,South,186,10.0,10.0,65,0.00,,,0.00,Wunderground v.1.15,2013-01-19 20:50:00,
2013-01-19 14:55:00,54.9,42.9,30.09,SSW,200,10.0,10.0,64,0.00,,,0.00,Wunderground v.1.15,2013-01-19 20:55:00,
2013-01-19 15:05:00,55.4,43.8,30.09,SE,136,9.0,10.0,65,0.00,,,0.00,Wunderground v.1.15,2013-01-19 21:05:00,
2013-01-19 15:10:00,55.4,43.0,30.09,South,177,8.0,8.0,63,0.00,,,0.00,Wunderground v.1.15,2013-01-19 21:10:00,
2013-01-19 15:20:00,54.9,42.9,30.08,SSE,154,9.0,11.0,64,0.00,,,0.00,Wunderground v.1.15,2013-01-19 21:20:00,
2013-01-19 15:25:00,54.9,43.4,30.08,South,181,8.0,11.0,65,0.00,,,0.00,Wunderground v.1.15,2013-01-19 21:25:00,
2013-01-19 15:30:00,54.9,43.4,30.08,SSE,162,8.0,10.0,65,0.00,,,0.00,Wunderground v.1.15,2013-01-19 21:30:00,
2013-01-19 15:35:00,54.6,43.1,30.08,SSE,156,9.0,10.0,65,0.00,,,0.00,Wunderground v.1.15,2013-01-19 21:35:00,
2013-01-19 15:40:00,54.5,43.4,30.08,SSE,152,9.0,9.0,66,0.00,,,0.00,Wunderground v.1.15,2013-01-19 21:40:00,
2013-01-19 15:45:00,54.4,42.9,30.08,SSE,158,9.0,9.0,65,0.00,,,0.00,Wunderground v.1.15,2013-01-19 21:45:00,
2013-01-19 15:50:00,54.3,43.2,30.08,South,189,10.0,10.0,66,0.00,,,0.00,Wunderground v.1.15,2013-01-19 21:50:00,
2013-01-19 16:00:00,53.8,42.7,30.07,SSE,150,10.0,10.0,66,0.00,,,0.00,Wunderground v.1.15,2013-01-19 22:00:00,
2013-01-19 16:05:00,53.6,42.9,30.07,SSE,148,10.0,15.0,67,0.00,,,0.00,Wunderground v.1.15,2013-01-19 22:05:00,
2013-01-19 16:10:00,53.2,42.5,30.07,SE,132,10.0,10.0,67,0.00,,,0.00,Wunderground v.1.15,2013-01-19 22:10:00,
2013-01-19 16:15:00,53.0,42.3,30.07,SE,146,10.0,15.0,67,0.00,,,0.00,Wunderground v.1.15,2013-01-19 22:15:00,
2013-01-19 16:20:00,52.9,42.6,30.07,SE,132,10.0,10.0,68,0.00,,,0.00,Wunderground v.1.15,2013-01-19 22:20:00,
2013-01-19 16:25:00,52.6,42.3,30.07,SSE,155,10.0,10.0,68,0.00,,,0.00,Wunderground v.1.15,2013-01-19 22:25:00,
2013-01-19 16:35:00,52.2,42.3,30.07,SW,214,9.0,14.0,69,0.00,,,0.00,Wunderground v.1.15,2013-01-19 22:35:00,
2013-01-19 16:40:00,51.7,42.2,30.07,SSW,199,9.0,9.0,70,0.00,,,0.00,Wunderground v.1.15,2013-01-19 22:40:00,
2013-01-19 16:50:00,51.1,42.0,30.07,SSE,149,9.0,9.0,71,0.00,,,0.00,Wunderground v.1.15,2013-01-19 22:50:00,
2013-01-19 16:55:00,50.8,41.7,30.07,SSE,152,9.0,14.0,71,0.00,,,0.00,Wunderground v.1.15,2013-01-19 22:55:00,
2013-01-19 17:00:00,50.5,41.4,30.07,SSE,147,9.0,9.0,71,0.00,,,0.00,Wunderground v.1.15,2013-01-19 23:00:00,
2013-01-19 17:05:00,50.2,41.5,30.07,SSE,167,10.0,10.0,72,0.00,,,0.00,Wunderground v.1.15,2013-01-19 23:05:00,
2013-01-19 17:10:00,49.9,41.2,30.07,SE,142,10.0,10.0,72,0.00,,,0.00,Wunderground v.1.15,2013-01-19 23:10:00,
2013-01-19 17:20:00,49.5,41.2,30.07,SE,137,10.0,10.0,73,0.00,,,0.00,Wunderground v.1.15,2013-01-19 23:20:00,
2013-01-19 17:25:00,49.3,41.0,30.07,SSE,155,10.0,10.0,73,0.00,,,0.00,Wunderground v.1.15,2013-01-19 23:25:00,
2013-01-19 17:30:00,49.1,41.2,30.07,SSE,148,9.0,11.0,74,0.00,,,0.00,Wunderground v.1.15,2013-01-19 23:30:00,
2013-01-19 17:40:00,48.8,40.9,30.07,SSE,153,10.0,12.0,74,0.00,,,0.00,Wunderground v.1.15,2013-01-19 23:40:00,
2013-01-19 17:50:00,48.4,40.5,30.08,SE,136,10.0,10.0,74,0.00,,,0.00,Wunderground v.1.15,2013-01-19 23:50:00,
2013-01-19 18:00:00,48.2,40.3,30.08,SSE,150,9.0,13.0,74,0.00,,,0.00,Wunderground v.1.15,2013-01-20 00:00:00,
2013-01-19 18:05:00,48.1,40.5,30.08,SSE,148,9.0,13.0,75,0.00,,,0.00,Wunderground v.1.15,2013-01-20 00:05:00,
2013-01-19 18:10:00,47.9,40.4,30.08,SSE,153,9.0,12.0,75,0.00,,,0.00,Wunderground v.1.15,2013-01-20 00:10:00,
2013-01-19 18:15:00,47.8,40.3,30.08,SSE,164,8.0,12.0,75,0.00,,,0.00,Wunderground v.1.15,2013-01-20 00:15:00,
2013-01-19 18:20:00,47.7,40.2,30.08,SSW,207,9.0,9.0,75,0.00,,,0.00,Wunderground v.1.15,2013-01-20 00:20:00,
2013-01-19 18:25:00,47.6,40.4,30.09,SE,135,8.0,9.0,76,0.00,,,0.00,Wunderground v.1.15,2013-01-20 00:25:00,
2013-01-19 18:30:00,47.5,40.3,30.09,SSE,156,8.0,15.0,76,0.00,,,0.00,Wunderground v.1.15,2013-01-20 00:30:00,
2013-01-19 18:40:00,47.3,40.1,30.09,SSE,168,8.0,8.0,76,0.00,,,0.00,Wunderground v.1.15,2013-01-20 00:40:00,
2013-01-19 18:45:00,47.1,39.9,30.10,SSE,154,7.0,8.0,76,0.00,,,0.00,Wunderground v.1.15,2013-01-20 00:45:00,
2013-01-19 18:50:00,46.9,40.1,30.10,SE,146,7.0,7.0,77,0.00,,,0.00,Wunderground v.1.15,2013-01-20 00:50:00,
2013-01-19 18:55:00,46.8,40.0,30.10,South,172,6.0,8.0,77,0.00,,,0.00,Wunderground v.1.15,2013-01-20 00:55:00,
2013-01-19 19:00:00,46.7,39.9,30.11,SSE,154,6.0,6.0,77,0.00,,,0.00,Wunderground v.1.15,2013-01-20 01:00:00,
2013-01-19 19:05:00,46.6,39.8,30.11,SE,146,6.0,7.0,77,0.00,,,0.00,Wunderground v.1.15,2013-01-20 01:05:00,
2013-01-19 19:10:00,46.4,39.6,30.11,South,177,5.0,7.0,77,0.00,,,0.00,Wunderground v.1.15,2013-01-20 01:10:00,
2013-01-19 19:15:00,46.3,39.5,30.11,SSE,149,6.0,7.0,77,0.00,,,0.00,Wunderground v.1.15,2013-01-20 01:15:00,
2013-01-19 19:20:00,46.1,39.3,30.11,SSE,148,5.0,7.0,77,0.00,,,0.00,Wunderground v.1.15,2013-01-20 01:20:00,
2013-01-19 19:25:00,46.0,39.5,30.12,SE,136,4.0,7.0,78,0.00,,,0.00,Wunderground v.1.15,2013-01-20 01:25:00,
2013-01-19 19:30:00,45.8,39.3,30.12,SE,141,4.0,4.0,78,0.00,,,0.00,Wunderground v.1.15,2013-01-20 01:30:00,
2013-01-19 19:35:00,45.6,39.1,30.12,SSE,156,4.0,7.0,78,0.00,,,0.00,Wunderground v.1.15,2013-01-20 01:35:00,
2013-01-19 19:40:00,45.5,39.0,30.12,SSE,151,4.0,7.0,78,0.00,,,0.00,Wunderground v.1.15,2013-01-20 01:40:00,
2013-01-19 19:50:00,45.2,38.7,30.13,SSE,151,3.0,7.0,78,0.00,,,0.00,Wunderground v.1.15,2013-01-20 01:50:00,
2013-01-19 19:55:00,45.0,38.9,30.13,SSE,162,3.0,7.0,79,0.00,,,0.00,Wunderground v.1.15,2013-01-20 01:55:00,
2013-01-19 20:00:00,44.9,38.8,30.13,SSE,154,4.0,7.0,79,0.00,,,0.00,Wunderground v.1.15,2013-01-20 02:00:00,
2013-01-19 20:10:00,44.8,38.7,30.13,SSE,158,5.0,7.0,79,0.00,,,0.00,Wunderground v.1.15,2013-01-20 02:10:00,
2013-01-19 20:15:00,44.9,38.5,30.13,SE,131,6.0,7.0,78,0.00,,,0.00,Wunderground v.1.15,2013-01-20 02:15:00,
2013-01-19 20:20:00,44.8,38.4,30.13,SSE,159,6.0,6.0,78,0.00,,,0.00,Wunderground v.1.15,2013-01-20 02:20:00,
2013-01-19 20:25:00,44.8,38.4,30.13,SSE,152,5.0,7.0,78,0.00,,,0.00,Wunderground v.1.15,2013-01-20 02:25:00,
2013-01-19 20:30:00,44.8,38.4,30.13,SSE,151,5.0,5.0,78,0.00,,,0.00,Wunderground v.1.15,2013-01-20 02:30:00,
2013-01-19 20:35:00,44.6,38.2,30.13,SE,144,5.0,7.0,78,0.00,,,0.00,Wunderground v.1.15,2013-01-20 02:35:00,
2013-01-19 20:40:00,44.5,38.1,30.13,SSE,154,5.0,7.0,78,0.00,,,0.00,Wunderground v.1.15,2013-01-20 02:40:00,
2013-01-19 20:50:00,44.1,37.7,30.13,South,169,5.0,7.0,78,0.00,,,0.00,Wunderground v.1.15,2013-01-20 02:50:00,
2013-01-19 20:55:00,44.0,37.6,30.13,SE,145,5.0,8.0,78,0.00,,,0.00,Wunderground v.1.15,2013-01-20 02:55:00,
2013-01-19 21:00:00,43.8,37.4,30.13,SE,143,5.0,8.0,78,0.00,,,0.00,Wunderground v.1.15,2013-01-20 03:00:00,
2013-01-19 21:05:00,43.7,37.3,30.13,SSW,207,5.0,8.0,78,0.00,,,0.00,Wunderground v.1.15,2013-01-20 03:05:00,
2013-01-19 21:10:00,43.6,37.5,30.13,South,187,5.0,7.0,79,0.00,,,0.00,Wunderground v.1.15,2013-01-20 03:10:00,
2013-01-19 21:15:00,43.6,37.2,30.13,SSE,163,5.0,7.0,78,0.00,,,0.00,Wunderground v.1.15,2013-01-20 03:15:00,
2013-01-19 21:20:00,43.6,37.2,30.13,South,173,5.0,5.0,78,0.00,,,0.00,Wunderground v.1.15,2013-01-20 03:20:00,
2013-01-19 21:25:00,43.6,37.2,30.13,South,178,6.0,6.0,78,0.00,,,0.00,Wunderground v.1.15,2013-01-20 03:25:00,
2013-01-19 21:35:00,43.6,37.2,30.14,South,191,7.0,7.0,78,0.00,,,0.00,Wunderground v.1.15,2013-01-20 03:35:00,
2013-01-19 21:40:00,43.6,37.2,30.14,SSW,194,8.0,10.0,78,0.00,,,0.00,Wunderground v.1.15,2013-01-20 03:40:00,
2013-01-19 21:45:00,43.7,37.3,30.14,SSW,196,8.0,10.0,78,0.00,,,0.00,Wunderground v.1.15,2013-01-20 03:45:00,
2013-01-19 21:50:00,43.9,37.5,30.14,SSW,195,9.0,9.0,78,0.00,,,0.00,Wunderground v.1.15,2013-01-20 03:50:00,
2013-01-19 22:00:00,43.8,37.1,30.14,South,191,8.0,9.0,77,0.00,,,0.00,Wunderground v.1.15,2013-01-20 04:00:00,
2013-01-19 22:05:00,43.8,37.4,30.14,SSW,200,8.0,9.0,78,0.00,,,0.00,Wunderground v.1.15,2013-01-20 04:05:00,
2013-01-19 22:10:00,43.7,37.3,30.14,SSW,193,8.0,8.0,78,0.00,,,0.00,Wunderground v.1.15,2013-01-20 04:10:00,
2013-01-19 22:20:00,43.4,37.0,30.14,South,181,6.0,9.0,78,0.00,,,0.00,Wunderground v.1.15,2013-01-20 04:20:00,
2013-01-19 22:25:00,43.3,36.9,30.14,SSW,200,7.0,9.0,78,0.00,,,0.00,Wunderground v.1.15,2013-01-20 04:25:00,
2013-01-19 22:30:00,43.2,36.8,30.14,SSW,196,6.0,9.0,78,0.00,,,0.00,Wunderground v.1.15,2013-01-20 04:30:00,
2013-01-19 22:35:00,43.1,37.0,30.14,South,190,6.0,9.0,79,0.00,,,0.00,Wunderground v.1.15,2013-01-20 04:35:00,
2013-01-19 22:40:00,42.9,36.8,30.14,South,171,5.0,5.0,79,0.00,,,0.00,Wunderground v.1.15,2013-01-20 04:40:00,
2013-01-19 22:45:00,42.8,36.7,30.15,South,191,5.0,7.0,79,0.00,,,0.00,Wunderground v.1.15,2013-01-20 04:45:00,
2013-01-19 22:50:00,42.7,36.6,30.15,SSW,194,4.0,7.0,79,0.00,,,0.00,Wunderground v.1.15,2013-01-20 04:50:00,
2013-01-19 22:55:00,42.6,36.9,30.15,SSW,192,4.0,7.0,80,0.00,,,0.00,Wunderground v.1.15,2013-01-20 04:55:00,
2013-01-19 23:00:00,42.3,36.3,30.15,SSW,193,3.0,3.0,79,0.00,,,0.00,Wunderground v.1.15,2013-01-20 05:00:00,
2013-01-19 23:05:00,42.1,36.4,30.14,SSW,193,1.0,7.0,80,0.00,,,0.00,Wunderground v.1.15,2013-01-20 05:05:00,
2013-01-19 23:10:00,41.8,36.4,30.14,SSW,193,0.0,7.0,81,0.00,,,0.00,Wunderground v.1.15,2013-01-20 05:10:00,
2013-01-19 23:15:00,41.5,36.1,30.14,SSW,193,0.0,7.0,81,0.00,,,0.00,Wunderground v.1.15,2013-01-20 05:15:00,
2013-01-19 23:20:00,41.3,36.2,30.14,South,191,1.0,7.0,82,0.00,,,0.00,Wunderground v.1.15,2013-01-20 05:20:00,
2013-01-19 23:30:00,41.2,36.1,30.15,South,185,2.0,2.0,82,0.00,,,0.00,Wunderground v.1.15,2013-01-20 05:30:00,
2013-01-19 23:35:00,40.9,35.8,30.15,SSW,192,2.0,4.0,82,0.00,,,0.00,Wunderground v.1.15,2013-01-20 05:35:00,
2013-01-19 23:40:00,40.8,36.0,30.15,SSW,192,3.0,3.0,83,0.00,,,0.00,Wunderground v.1.15,2013-01-20 05:40:00,
2013-01-19 23:45:00,40.7,35.9,30.15,SSW,193,2.0,7.0,83,0.00,,,0.00,Wunderground v.1.15,2013-01-20 05:45:00,
2013-01-19 23:50:00,40.6,36.1,30.15,South,186,2.0,2.0,84,0.00,,,0.00,Wunderground v.1.15,2013-01-20 05:50:00,
2013-01-19 23:55:00,40.5,35.7,30.15,South,187,3.0,3.0,83,0.00,,,0.00,Wunderground v.1.15,2013-01-20 05:55:00,